Tracking 24122 objects as of 9-Dec-2021
HD Live streaming from Space Station
objects crossing your sky now

OPS 4682 DEB

Track OPS 4682 DEB now!
10-day predictions


NORAD ID: 38415
Int'l Code: 1965-027DU
Perigee: 1,242.8 km
Apogee: 1,285.8 km
Inclination: 90.3 °
Period: 110.7 minutes
Semi major axis: 7635 km
RCS: 0.0106 m2 (small)
Launch date: April 3, 1965
Source: United States (US)
Launch site: AIR FORCE WESTERN TEST RANGE (AFWTR)

Note: This is SATELLITE DEBRIS
aabbcc
Your satellite tracking list
Your tracking list is empty




NASA's NSSDC Master Catalog

Two Line Element Set (TLE):
1 38415U 65027DU  21342.28467733  .00000937  00000-0  30302-2 0  9992
2 38415  90.2607 336.7031 0028192 176.9225 183.2077 13.01260435400012
Source of the keplerian elements: AFSPC